This demonstration page uses our WeatherBlox Daily Observations layout. Learn more.

Left ArrowRight Arrow

36.17497, -115.13722

Hourly Observations for November 10, 2021

Temp ( °F °C ) Dew Point ( °F °C ) Humidity (%) Winds ( mph kmh ) Pressure ( in mb ) Visibility ( mi km ) Precip ( " mm )
12:53 am 00:53 Clear 64 17.8 37 2.8 37 37 VRB 5 7 30.09 1019 10 16 0.00 0.00
1:53 am 01:53 Clear 62 16.7 37 2.8 40 40 NW 10 17 30.11 1020 10 16 0.00 0.00
2:53 am 02:53 Clear 64 17.8 37 2.8 37 37 NW 16 26 30.11 1020 10 16 0.00 0.00
3:53 am 03:53 Clear 64 17.8 38 3.3 38 38 NW 17 28 30.11 1020 10 16 0.00 0.00
4:53 am 04:53 Clear 62 16.7 39 3.9 43 43 NNW 16 26 30.14 1021 10 16 0.00 0.00
5:53 am 05:53 Clear 62 16.7 39 3.9 43 43 NW 14 22 30.16 1021 10 16 0.00 0.00
6:53 am 06:53 Sunny 62 16.7 39 3.9 43 43 NW 16 26 30.16 1022 10 16 0.00 0.00
7:53 am 07:53 Sunny 66 18.9 39 3.9 37 37 Calm 30.18 1022 10 16 0.00 0.00
8:53 am 08:53 Sunny 70 21.1 38 3.3 31 31 N 9 15 30.18 1022 10 16 0.00 0.00
9:53 am 09:53 Sunny 72 22.2 36 2.2 27 27 ENE 9 15 30.19 1022 10 16 0.00 0.00
10:53 am 10:53 Sunny 74 23.3 34 1.1 23 23 E 7 11 30.17 1022 10 16 0.00 0.00
11:53 am 11:53 Sunny 79 26.1 28 -2.2 15 15 NNW 13 20 30.15 1021 10 16 0.00 0.00
12:53 pm 12:53 Sunny 79 26.1 28 -2.2 15 15 NNW 20 31 30.12 1020 10 16 0.00 0.00
1:53 pm 13:53 Sunny 81 27.2 29 -1.7 15 15 N 16 26 30.10 1019 10 16 0.00 0.00
2:53 pm 14:53 Sunny 78 25.6 32 0 19 19 NNE 10 17 30.11 1020 10 16 0.00 0.00
3:53 pm 15:53 Sunny 76 24.4 32 0 20 20 E 12 19 30.11 1020 10 16 0.00 0.00
4:53 pm 16:53 Clear 73 22.8 31 -0.6 21 21 ESE 8 13 30.13 1020 10 16 0.00 0.00
5:53 pm 17:53 Clear 72 22.2 34 1.1 25 25 SSW 3 6 30.15 1021 10 16 0.00 0.00
6:53 pm 18:53 Clear 67 19.4 33 0.6 28 28 WNW 6 9 30.16 1021 10 16 0.00 0.00
7:53 pm 19:53 Clear 65 18.3 34 1.1 32 32 NW 5 7 30.17 1022 10 16 0.00 0.00
8:53 pm 20:53 Clear 64 17.8 33 0.6 32 32 NNW 5 7 30.18 1022 10 16 0.00 0.00
9:53 pm 21:53 Clear 66 18.9 35 1.7 32 32 NNE 7 11 30.19 1022 10 16 0.00 0.00
10:53 pm 22:53 Clear 67 19.4 36 2.2 32 32 N 9 15 30.20 1023 10 16 0.00 0.00
11:53 pm 23:53 Clear 68 20 36 2.2 31 31 NNW 15 24 30.20 1023 10 16 0.00 0.00

Powered by AerisWeather